GORIZONT 31 
1 23775U 96005A   03022.53572652 -.00000322  00000-0  00000+0 0  4921
2 23775   3.9546  77.9057 0002258 210.6095 128.7017  1.00282971 25629
GORIZONT 32 
1 23880U 96034A   03021.40589622  .00000101  00000-0  10000-3 0  4985
2 23880   3.7700  80.1548 0002376 277.9405 321.0558  1.00271571 24383
GORIZONT 33 
1 26372U 00029A   03021.63306263 -.00000239  00000-0  00000-0 0  8215
2 26372   0.8017  84.2409 0001584 242.2796 166.8846  1.00270957  9723
RADUGA 32 
1 23448U 94087A   03020.67446282 -.00000060  00000-0  10000-3 0  3730
2 23448   4.7405  74.6154 0005144 359.8150   0.1771  1.00281830 47229
RADUGA 1-4 
1 25642U 99010A   03022.25090653  .00000161  00000-0  10000-3 0  9515
2 25642   2.9509 112.6415 0000593 235.3931 258.2485  1.00264985 14272
RADUGA 1-5 
1 26477U 00049A   03022.21216162  .00000122  00000-0  10000-3 0  6713
2 26477   0.5771  92.1338 0001262 275.8128 238.6669  1.00283648  8783
RADUGA 1-6 
1 26936U 01045A   03021.40449355 -.00000181  00000-0  10000-3 0  3759
2 26936   0.3853 250.6589 0001286 132.0835 328.5711  1.00273055  4746
MOLNIYA 3-37
1 20444U 90006A   03021.32297326  .00002792  00000-0  95757-3 0  7083
2 20444  61.7456 161.3544 7511393 260.9306  15.9229  2.00572475 95211
MOLNIYA 1-77
1 20583U 90039A   03021.64801385  .00000503  00000-0  83344-3 0  4695
2 20583  62.5773 283.7219 7447778 248.4362  22.3585  2.06246186 93546
MOLNIYA 3-38
1 20646U 90052A   03021.74977941  .00000666  00000-0  58318-3 0  5260
2 20646  62.6691 280.7544 7305349 260.8709  17.9078  2.21221065 93132
MOLNIYA 1-78
1 20742U 90071A   03020.96857020 -.00000043  00000-0  87575-3 0  5780
2 20742  63.4880   6.5075 7470382 244.7700  24.3526  2.00728838 91228
MOLNIYA 3-39
1 20813U 90084A   03021.04246617 -.00001536  00000-0 -93413-3 0   521
2 20813  64.2970  54.1294 7303481 254.2871  20.8142  2.00997542 90378
MOLNIYA 1-79
1 20949U 90101A   03021.57412765 -.00000810  00000-0  10000-3 0  8463
2 20949  62.8707 217.7528 7155134 256.4894  57.9551  2.01024837 89143
MOLNIYA 1-80
1 21118U 91012A   03021.73488466  .00000578  00000-0  00000-0 0  4522
2 21118  64.5035 192.1760 6469746 260.8520  20.2676  2.00559532 87424
MOLNIYA 3-40
1 21196U 91022A   03021.32594526 -.00000623  00000-0  10000-3 0  8608
2 21196  64.3774 185.5671 6521512 258.6213  26.7006  2.00483845 86722
MOLNIYA 1-81
1 21426U 91043A   03020.55047064  .00000308  00000-0  10000-3 0  1243
2 21426  63.5501 202.4959 6739001 260.2026  23.5996  2.00588372 84968
MOLNIYA 1-82
1 21630U 91053A   03021.59099037 -.00000340  00000-0 -18161-2 0  2045
2 21630  62.0379 229.8881 7380225 254.0555  20.0865  2.00708083 84081
MOLNIYA 3-41
1 21706U 91065A   03021.19713418  .00001110  00000-0  28452-2 0  2558
2 21706  63.7062  62.4963 7394806 256.8745  18.6524  2.00674008 83123
MOLNIYA 1-83
1 21897U 92011A   03022.09053410 -.00000271  00000-0 -69024-2 0   962
2 21897  64.4883  37.1723 7397516 248.1998 235.4678  2.00563300 79767
MOLNIYA 1-84
1 22068U 92050A   03021.21437573 -.00000055  00000-0  00000+0 0  7484
2 22068  64.4084  84.2035 7327015 246.7016  24.7634  2.00634489 76633
MOLNIYA 3-42
1 22178U 92067A   03021.45139282  .00000265  00000-0  10000-3 0  5526
2 22178  63.9763 168.5303 6841888 259.7566  22.8333  2.00598413 75257
MOLNIYA 3-43
1 22255U 92085A   03019.02388814 -.00000041  00000-0  10000-3 0  1539
2 22255  63.8838 279.5450 7087241 263.4242  18.9838  2.00704582 74239
MOLNIYA 1-85
1 22309U 93002A   03022.07983938  .00004662  00000-0  64506-3 0  5396
2 22309  62.8950 313.2254 7470551 248.9172  21.8177  2.05879898 73530
MOLNIYA 3-44
1 22633U 93025A   03021.13835731  .00000228  00000-0  73416-3 0  2812
2 22633  64.2775  58.4226 7462231 246.0986  23.5295  2.00648762 71465
MOLNIYA 1-86
1 22671U 93035A   03022.25423002  .00000136  00000-0  00000+0 0  4931
2 22671  64.0306 142.8710 7067497 258.7034 296.9415  2.00619698 70780
MOLNIYA 3-45
1 22729U 93049A   03020.30089339  .00000498  00000-0  00000+0 0  8413
2 22729  64.4841 209.6790 6607713 266.9749  21.5880  2.00551411 69308
MOLNIYA 1-87
1 22949U 93079A   03021.95559761  .00001261  00000-0  10000-3 0  3951
2 22949  64.4222 301.2874 6899391 270.1079  17.8696  2.00360391 66591
MOLNIYA 3-46
1 23211U 94051A   03019.97722348  .00000932  00000-0  00000+0 0  4441
2 23211  64.8869 108.6026 7153794 256.2655  21.3591  2.00751693 61610
MOLNIYA 1-88
1 23420U 94081A   03021.57007561  .00000411  00000-0  10000-3 0  7280
2 23420  64.0828 209.1386 6874290 265.6867  19.7357  2.00594759 59407
MOLNIYA 3-47
1 23642U 95042A   03021.40297156  .00000028  00000-0  10000-3 0  7180
2 23642  64.1160 305.6824 7073866 271.9254  68.8279  2.00658886 54633
MOLNIYA 1-89
1 24273U 96045A   03021.77126802  .00000072  00000-0  29000-3 0  6665
2 24273  64.1143 275.1825 7138039 271.6143  38.0288  2.00648986 47164
MOLNIYA 3-48
1 24640U 96060A   03021.55609932  .00000061  00000-0  10000-3 0  1456
2 24640  64.8475 211.5520 6857842 264.4206  20.4385  2.00615897 45742
MOLNIYA-1T 
1 24960U 97054A   03021.87865962 -.00000122  00000-0  15671-2 0  4266
2 24960  64.1036   9.6229 7311812 275.6845 283.7006  2.00656568 39085
MOLNIYA 3-49
1 25379U 98040A   03022.18116647 -.00000473  00000-0 -16192-4 0  4037
2 25379  64.0776 353.9124 7411745 277.4993 183.1369  2.00621766 33428
MOLNIYA 1-91
1 25485U 98054A   03022.20249104 -.00000012  00000-0  00000+0 0  3828
2 25485  63.4317 109.5756 7060160 277.6712 322.1054  2.00616702 31617
MOLNIYA 3-50
1 25847U 99036A   03021.55549377  .00000352  00000-0  00000-0 0  3875
2 25847  63.4521 194.4883 6831237 280.1167  34.4208  2.00565570 25942
MOLNIYA 3-51
1 26867U 01030A   03022.17498903  .00000495  00000-0  10000-3 0  5843
2 26867  62.9556 173.1941 7212614 280.3050 160.1783  2.00616023 11043
IRIDIUM 8 
1 24792U 97020A   03021.96949298 -.00000336  00000-0 -12715-3 0    33
2 24792  86.3957 356.9016 0002588  62.7314 297.4140 14.34213975299242
IRIDIUM 7 
1 24793U 97020B   03021.96315022 -.00000179  00000-0 -70952-4 0   118
2 24793  86.3959 356.9465 0002570  64.1352 296.0107 14.34214498299241
IRIDIUM 6 
1 24794U 97020C   03021.46842432  .00000262  00000-0  86642-4 0  8307
2 24794  86.3961 357.1715 0002473  85.7633 274.3843 14.34216713299179
IRIDIUM 5 
1 24795U 97020D   03021.95046518 -.00000322  00000-0 -12199-3 0   860
2 24795  86.3966 357.0145 0002593  62.6444 297.5023 14.34212980299324
IRIDIUM 4 
1 24796U 97020E   03022.46421400 -.00000208  00000-0 -81224-4 0   358
2 24796  86.3962 356.6638 0002482  62.4663 297.6787 14.34214055299335
IRIDIUM 914 
1 24836U 97030A   03022.55519540  .00000556  00000-0  18177-3 0  6128
2 24836  86.3926  26.4454 0004020  73.4376 286.7261 14.36802718293264
IRIDIUM 12 
1 24837U 97030B   03022.10610928 -.00000055  00000-0 -26795-4 0   230
2 24837  86.3945  28.3875 0002504  59.6736 300.4703 14.34215997293018
IRIDIUM 9 
1 24838U 97030C   03022.42631516  .00169682  00000-0  13331-2 0  1941
2 24838  86.4209 340.2732 0030451 146.7376 213.5813 15.70389168300479
IRIDIUM 10 
1 24839U 97030D   03021.95388655 -.00000148  00000-0 -59931-4 0    32
2 24839  86.3940  28.4556 0002402  67.1378 293.0073 14.34215245293007
IRIDIUM 13 
1 24840U 97030E   03021.97291724 -.00000233  00000-0 -90108-4 0  9985
2 24840  86.3941  28.4723 0002277  70.4420 289.7023 14.34213797292995
IRIDIUM 16 
1 24841U 97030F   03022.54374898 -.00000154  00000-0 -61982-4 0   198
2 24841  86.3958  28.3099 0002504  61.5964 298.5484 14.34214889293078
IRIDIUM 911 
1 24842U 97030G   03021.97625426  .00000802  00000-0  23677-3 0  6979
2 24842  86.4452  31.2565 0012665 238.3072 121.6883 14.42318393294123
IRIDIUM 15 
1 24869U 97034A   03022.17295684 -.00000040  00000-0 -21395-4 0    48
2 24869  86.3959  59.9710 0002339  63.0405 297.1024 14.34216589289992
IRIDIUM 17 
1 24870U 97034B   03021.67823428 -.00000136  00000-0 -55615-4 0   124
2 24870  86.3940  60.2025 0002325  66.9842 293.1597 14.34215899289927
IRIDIUM 920 
1 24871U 97034C   03022.16934283  .00000562  00000-0  18148-3 0  6241
2 24871  86.3946  58.4395 0012119 343.8826  16.1981 14.37366680290272
IRIDIUM 18 
1 24872U 97034D   03022.55351215 -.00000088  00000-0 -38345-4 0   187
2 24872  86.3950  59.8665 0002466  60.4298 299.7172 14.34216103290049
IRIDIUM 921 
1 24873U 97034E   03022.05452145  .00004608  00000-0  44497-3 0  8101
2 24873  86.3862 351.4085 0009368 333.9177  26.1575 14.92597568299691
IRIDIUM 26 
1 24903U 97043A   03021.84213458 -.00000085  00000-0 -37498-4 0   612
2 24903  86.3969 293.7859 0002644  60.3417 299.8042 14.34215627283889
IRIDIUM 25 
1 24904U 97043B   03022.22269519 -.00000232  00000-0 -89744-4 0   159
2 24904  86.3969 293.6142 0002696  63.1571 296.9900 14.34213123283906
IRIDIUM 46 
1 24905U 97043C   03022.16560769 -.00000124  00000-0 -51470-4 0   339
2 24905  86.3977 293.7111 0002658  65.0514 295.0968 14.34215236283900
IRIDIUM 23 
1 24906U 97043D   03022.21001112 -.00000257  00000-0 -98712-4 0   379
2 24906  86.3966 293.5869 0002754  60.7120 299.4388 14.34213002283913
IRIDIUM 22 
1 24907U 97043E   03021.78505499  .00000157  00000-0  49169-4 0    30
2 24907  86.3972 293.8555 0002546  79.1061 281.0416 14.34215492283850
DUMMY MASS 1
1 24925U 97048A   03021.94612871  .00000663  00000-0  77806-4 0  5896
2 24925  86.3364 304.3094 0004681 248.0379 112.0345 14.83259792291445
DUMMY MASS 2
1 24926U 97048B   03021.94183974  .00000611  00000-0  71831-4 0  5686
2 24926  86.3360 304.5956 0005554 247.8202 112.2430 14.83046727291408
IRIDIUM 29 
1 24944U 97051A   03021.86459060  .00000103  00000-0  29826-4 0  9725
2 24944  86.3976 325.3758 0002514  76.5699 283.5770 14.34214442280439
